Temperature
17 17 17 17 17 17 17 17 17 17 18 18 18 18 18 18 18 18 18 18 18 18 18 18 18 18 18 18 18 18 18 18 18 18 18 18 18 18 18 18 18 17 18
17 17 17 17 17 17 17 17 17 17 17 18 18 18 18 18 18 18 18 18 18 18 18 18 18 18 18 18 18 18 18 18 18 18 18 18 18 18 18 18 18 17 18
17 17 17 17 17 17 17 17 17 17 17 17 17 17 17 18 18 18 17 17 17 17 17 17 18 18 18 18 18 18 17 17 17 17 17 17 17 18 18 18 18 18 18
17 17 17 17 17 17 17 17 17 17 17 17 17 17 17 17 17 17 17 17 17 17 17 17 17 17 17 17 17 17 17 17 17 17 17 17 17 17 17 17 17 17 17
17 17 17 17 17 17 17 17 17 17 17 17 17 17 17 17 17 17 17 17 17 17 17 17 17 17 17 17 17 17 17 17 17 17 17 17 17 17 17 17 17 17 17
16 16 17 17 17 17 17 17 17 17 17 17 17 17 17 17 17 17 17 17 17 17 17 17 17 17 17 17 17 17 17 17 17 17 17 17 17 17 17 17 17 17 17
16 16 17 17 17 17 17 17 17 17 17 17 17 17 17 17 17 17 17 17 17 17 17 17 17 17 17 17 17 17 17 17 16 16 16 16 16 17 17 16 16 16 17
16 16 16 17 17 17 17 17 17 17 17 17 17 17 17 17 17 16 16 16 16 17 16 16 16 16 16 17 17 17 16 16 16 16 16 16 16 16 16 16 16 16 16
16 16 16 16 17 17 17 17 17 17 17 17 17 17 17 16 16 16 16 16 16 16 16 16 16 16 16 16 16 16 16 16 16 16 16 16 16 16 16 16 16 16 16
16 16 16 16 16 16 16 17 17 17 17 17 17 17 16 16 16 16 16 16 16 16 16 16 16 16 16 16 16 16 16 16 15 15 15 15 16 16 16 16 16 16 16
16 16 16 16 16 16 16 16 16 17 16 16 16 16 16 16 16 16 16 16 16 16 16 16 16 16 16 16 16 16 15 15 15 15 15 15 16 15 15 15 16 15 16
16 16 16 16 16 16 16 16 16 16 16 16 16 16 16 16 16 16 16 16 16 16 16 16 16 16 15 15 15 15 15 15 15 15 15 15 15 15 15 15 15 15 15
16 16 16 16 16 16 16 16 16 16 16 15 15 15 15 15 15 15 15 15 15 15 15 15 15 15 15 15 15 15 15 15 15 15 15 15 15 15 15 15 15 15 15
16 16 16 16 16 16 15 15 15 15 15 15 15 15 15 15 15 15 15 15 15 15 15 15 15 15 15 15 15 15 15 15 14 14 14 15 15 15 15 15 15 15 15
16 15 16 15 16 15 15 15 15 15 15 15 15 15 15 15 15 15 15 15 15 15 15 15 15 15 15 15 15 15 14 14 14 14 14 14 15 15 15 15 15 15 15
16 16 15 15 15 15 15 15 15 15 15 15 15 15 15 15 15 15 15 15 14 14 14 14 14 14 14 14 14 14 14 14 14 14 14 14 14 14 14 14 14 14 14
16 15 15 15 15 15 15 15 15 15 15 15 14 14 14 14 14 14 14 14 14 14 14 14 14 14 14 14 14 14 14 14 14 14 14 14 14 14 14 14 14 14 14
16 15 15 15 15 15 15 15 15 15 15 14 14 14 14 14 14 14 14 14 14 14 14 14 14 14 14 14 14 14 14 14 14 14 14 14 14 13 14 14 14 14 14
15 15 15 15 15 15 15 15 15 14 14 14 14 14 14 14 14 14 14 14 14 14 14 14 14 14 14 14 14 13 13 13 13 13 13 13 13 13 13 13 14 14 14
15 15 15 15 15 15 15 14 14 14 14 14 14 14 14 14 14 14 14 14 14 14 14 13 13 13 13 13 13 13 13 13 13 13 13 13 13 13 13 13 13 13 13
15 15 15 15 14 15 14 14 14 14 14 14 14 14 14 14 14 14 14 14 14 13 13 13 13 13 13 13 13 13 13 13 13 13 13 13 13 13 13 13 13 13 13
15 15 15 15 14 14 14 14 14 14 14 14 14 14 14 14 14 14 13 13 13 13 13 13 13 13 13 13 13 13 14 14 13 13 13 12 12 12 12 12 12 12 12
15 15 15 15 14 14 14 14 14 14 14 14 14 14 13 13 13 13 13 13 13 13 13 13 13 13 13 12 13 13 14 14 13 13 12 12 12 12 12 12 12 12 12
15 15 15 14 14 14 14 14 14 14 13 13 13 13 13 13 13 13 13 13 13 13 13 12 12 12 12 12 12 12 12 12 13 13 12 12 12 12 12 12 12 12 12
15 15 14 14 14 14 14 14 14 13 13 13 13 13 13 13 13 13 13 13 12 12 12 12 12 12 12 12 12 12 12 12 12 13 12 12 12 11 11 12 11 11 11
15 15 14 14 14 14 14 14 13 13 13 13 13 13 13 13 13 13 12 12 12 12 12 12 12 12 12 12 12 12 12 12 12 12 12 12 12 11 11 11 11 11 11
Wind_Speed
5 7 8 8 6 7 7 8 9 9 10 10 10 10 10 11 11 11 11 11 11 11 10 10 10 10 11 11 10 9 9 8 8 9 9 8 8 7 7 6 5 7 9
5 7 9 9 8 8 8 9 9 9 10 10 10 10 10 11 12 12 11 11 11 11 11 11 11 11 11 11 11 10 9 9 9 8 8 8 8 8 7 7 7 7 8
6 7 9 11 10 10 10 9 8 9 9 9 10 10 11 11 11 12 11 11 11 11 12 12 12 12 11 11 11 10 9 9 8 7 6 6 8 8 7 7 7 7 7
6 7 10 11 11 11 10 10 9 8 9 9 10 11 11 12 12 11 12 12 12 12 12 12 12 12 12 12 11 10 9 9 8 5 5 6 6 9 7 7 7 7 7
6 8 10 10 11 12 11 12 13 11 10 10 11 11 11 12 12 12 12 13 13 13 13 13 13 12 12 12 11 10 10 9 8 6 7 7 7 9 8 8 8 7 7
6 8 10 10 11 12 13 14 15 14 14 12 12 12 12 13 13 13 13 13 13 13 13 13 12 12 12 11 11 11 9 8 6 8 8 8 9 10 9 9 8 8 8
6 8 9 10 11 12 13 14 14 14 14 14 14 14 14 13 13 13 13 13 13 13 12 12 12 12 12 12 11 10 10 8 7 8 8 9 11 11 10 10 10 9 9
7 7 9 10 11 11 12 13 13 13 14 14 14 14 14 14 14 14 13 13 13 13 12 12 12 12 12 12 11 11 10 7 8 9 9 10 12 12 11 11 11 10 10
7 7 7 8 9 10 11 12 12 13 13 14 14 14 14 15 14 13 13 13 12 12 12 12 12 12 13 13 13 12 11 9 8 8 9 10 12 12 12 11 11 10 9
7 7 7 7 8 8 9 11 12 12 12 12 13 13 12 13 13 13 13 14 13 13 13 13 13 14 14 13 13 12 9 7 8 8 8 10 12 11 11 11 11 10 10
7 6 6 6 7 7 8 9 10 10 10 9 11 11 9 10 11 11 14 13 13 13 13 13 13 13 11 12 11 9 6 7 8 8 9 11 11 11 11 11 10 11 11
6 5 5 6 6 7 7 7 6 7 8 8 8 8 8 9 9 10 12 12 12 12 12 12 10 8 6 8 8 6 7 8 7 8 10 11 10 11 11 11 11 11 10
5 5 5 5 5 6 5 5 5 5 6 7 8 8 8 8 7 8 7 7 8 8 8 8 7 8 8 7 7 7 8 7 7 8 10 11 11 11 11 12 12 12 11
5 5 4 4 5 5 5 5 5 4 5 5 6 7 6 6 6 6 6 6 6 6 7 6 6 7 8 8 8 8 8 7 7 7 10 12 12 11 11 12 11 11 12
5 4 4 4 4 5 5 4 4 5 5 6 6 6 7 5 5 6 5 6 6 6 6 6 6 7 7 7 7 7 8 8 8 8 8 12 12 12 11 11 11 11 11
4 4 4 4 4 4 4 4 4 5 5 5 5 6 7 6 5 5 5 5 6 6 6 5 6 6 6 6 7 8 8 8 8 8 7 9 11 12 12 12 11 11 11
4 4 4 4 4 5 5 5 5 4 5 5 5 5 6 6 5 5 4 5 5 5 5 5 6 5 5 5 6 6 7 7 7 8 7 7 8 11 12 12 12 12 11
3 4 5 4 4 5 4 4 4 5 5 5 5 5 6 5 5 5 4 4 5 4 4 4 4 4 4 4 4 4 5 5 6 7 7 7 7 7 10 12 12 12 11
4 4 5 5 4 5 4 4 5 5 4 4 4 4 5 5 5 4 4 4 4 3 3 3 3 3 4 4 4 4 4 4 5 5 6 7 7 7 7 8 10 11 11
4 4 5 5 4 5 3 3 4 4 3 4 4 4 5 5 5 4 3 4 4 3 3 3 3 3 3 3 3 3 3 3 3 4 5 5 6 7 7 7 6 7 9
4 4 5 5 4 4 3 2 2 2 2 3 3 4 4 4 4 5 3 3 3 3 3 3 3 3 3 2 2 2 2 3 4 3 3 4 5 6 5 6 6 6 6
5 5 5 4 4 4 2 2 2 2 2 3 3 3 3 3 4 3 3 3 3 2 2 3 2 1 2 2 2 2 0 1 2 3 3 3 4 4 5 6 6 6 6
5 5 5 5 5 4 3 2 2 2 2 2 2 2 2 2 3 3 3 3 2 2 1 1 1 1 1 2 3 2 2 1 2 1 3 2 3 4 4 5 5 6 6
6 5 5 5 5 4 4 3 2 2 1 1 1 1 1 2 2 2 2 2 2 2 1 1 1 1 1 1 2 2 3 2 2 1 1 2 3 4 4 3 4 5 5
6 6 5 5 5 4 3 3 2 1 1 1 0 1 1 1 1 1 1 1 1 1 1 1 1 2 2 2 2 1 2 1 3 2 2 1 2 2 3 3 3 3 4
6 5 5 5 5 4 3 3 3 2 1 1 0 0 0 0 1 1 1 1 1 1 1 1 2 2 2 2 2 2 2 2 2 2 2 2 2 2 2 2 2 3 3
Wind_Direction
7 8 11 8 29 49 47 49 55 60 65 70 72 78 81 83 85 87 87 86 85 84 81 80 80 83 85 88 89 89 93 90 89 85 83 82 83 83 80 76 74 80 73
15 20 19 32 52 61 55 54 58 62 65 68 70 75 82 84 85 85 85 84 84 82 80 79 77 79 84 87 89 87 87 84 85 84 85 85 83 80 76 71 59 69 74
36 35 40 48 58 60 57 54 58 65 67 67 69 72 78 82 85 84 84 83 82 79 76 76 77 76 78 80 82 82 79 79 81 84 88 84 85 79 73 73 74 76 76
44 44 47 47 53 55 55 51 52 64 71 68 71 73 77 79 81 81 82 81 80 79 77 77 78 76 76 76 77 77 75 75 77 77 73 68 73 77 72 72 72 73 76
50 50 53 45 54 55 53 53 56 66 76 75 72 73 75 78 78 79 81 80 79 79 79 78 76 75 75 74 73 73 72 73 73 67 63 61 67 75 70 70 71 68 68
57 57 62 56 58 57 57 57 59 68 73 72 71 71 71 76 79 79 79 77 77 77 76 76 75 75 75 74 72 70 67 68 69 64 61 59 68 74 69 68 69 68 63
66 63 70 65 62 60 59 59 61 66 69 71 72 71 71 75 80 78 77 76 76 76 76 77 76 74 74 74 71 67 63 57 60 62 60 60 65 69 66 66 67 63 58
69 70 77 76 65 63 62 61 64 68 69 70 71 71 72 73 74 74 75 74 73 75 76 77 74 73 73 72 70 65 55 46 65 64 63 64 62 61 62 64 63 58 56
70 70 71 76 77 73 66 65 67 68 70 72 73 71 72 72 73 72 72 73 72 72 73 74 73 70 70 69 68 67 60 50 57 60 62 62 62 60 59 61 58 55 55
72 69 71 70 70 74 78 73 69 69 71 74 75 73 74 76 75 72 73 71 70 70 70 70 72 71 70 68 65 61 56 56 59 61 60 63 61 59 59 58 55 54 53
74 69 68 68 66 67 72 77 76 75 73 82 82 79 75 73 72 73 67 68 69 69 70 70 72 71 72 75 67 55 49 57 59 60 60 60 59 59 59 59 57 54 52
81 75 71 68 68 68 69 75 69 68 70 70 72 73 71 70 69 71 72 68 69 70 74 72 74 75 66 69 69 58 54 53 57 62 64 61 63 62 62 60 56 53 50
86 78 70 70 71 71 72 71 70 67 68 66 64 70 72 73 76 71 69 71 68 66 67 71 72 64 63 61 57 56 51 49 51 56 59 56 59 61 60 58 55 51 47
86 80 74 71 76 74 76 75 74 75 70 68 62 62 66 68 66 65 64 59 59 62 61 62 65 65 64 64 61 58 55 52 52 57 57 50 52 54 55 53 51 48 46
92 87 78 78 77 79 78 76 77 74 72 75 68 64 66 68 67 67 66 62 60 63 66 65 67 63 60 58 56 56 56 54 54 56 58 52 47 47 48 47 46 44 43
97 90 85 81 78 80 85 83 75 72 75 77 70 63 64 64 64 64 68 65 63 60 62 67 68 65 62 60 57 57 55 54 52 55 56 60 56 51 47 44 41 40 42
104 100 96 95 89 85 80 76 74 71 69 71 67 62 62 60 60 66 63 66 66 65 67 67 68 64 63 62 60 57 56 51 51 51 50 48 56 59 52 46 41 38 40
118 108 105 105 101 91 84 81 77 74 73 72 67 59 61 63 61 65 62 63 63 63 65 68 63 64 60 53 53 52 57 56 48 48 50 50 47 48 56 50 41 40 42
133 121 116 112 108 99 93 90 82 79 74 70 68 59 55 59 61 71 67 65 66 64 62 63 59 55 58 53 50 50 47 49 47 43 46 46 48 42 46 55 48 43 42
143 131 125 121 116 107 102 99 92 81 75 68 64 61 59 62 60 63 69 64 60 61 61 63 65 58 54 49 48 51 50 53 54 45 41 43 41 40 36 36 38 50 48
153 145 136 132 127 122 116 111 101 94 84 73 64 60 64 66 65 66 61 67 59 58 58 66 66 68 57 41 44 51 76 67 60 51 38 33 38 34 31 36 31 30 45
164 159 153 148 142 137 128 120 115 108 95 74 70 64 60 68 68 67 63 60 65 66 61 64 65 46 45 12 349 335 15 99 55 42 38 29 28 32 27 28 32 37 34
177 174 169 164 157 152 141 126 121 116 117 102 87 68 53 55 65 65 60 61 60 62 62 43 39 23 9 13 2 345 328 360 1 48 29 31 28 18 18 23 26 32 40
185 184 178 171 165 157 152 155 158 157 142 100 84 75 63 53 51 52 51 56 60 39 32 10 20 1 341 346 6 3 351 343 302 325 20 28 22 18 14 16 20 30 40
181 183 183 175 169 165 165 161 180 166 142 122 114 80 48 52 34 23 21 44 22 4 0 360 354 334 330 330 334 338 348 326 297 298 304 334 8 22 15 11 21 19 29
173 175 180 179 175 175 179 179 188 177 172 170 197 252 265 115 1 10 354 342 329 330 326 325 328 314 319 324 314 303 297 299 301 307 294 300 333 359 12 14 12 22 23
Height
1521 1517 1512 1507 1505 1508 1510 1510 1510 1511 1511 1510 1510 1510 1510 1510 1510 1510 1510 1511 1511 1511 1511 1511 1511 1511 1509 1509 1510 1511 1512 1513 1513 1513 1513 1514 1514 1514 1514 1515 1515 1515 1514
1522 1518 1512 1505 1503 1508 1511 1511 1511 1512 1512 1512 1512 1512 1512 1512 1512 1512 1512 1513 1513 1513 1513 1513 1513 1513 1513 1513 1513 1513 1514 1514 1514 1514 1514 1514 1515 1515 1515 1515 1515 1515 1515
1523 1520 1515 1510 1509 1511 1512 1512 1512 1512 1512 1513 1513 1513 1514 1514 1514 1514 1514 1514 1514 1514 1515 1515 1515 1515 1515 1515 1515 1515 1515 1515 1515 1515 1515 1516 1516 1515 1516 1516 1516 1516 1515
1525 1523 1520 1516 1515 1515 1514 1512 1509 1509 1511 1513 1515 1515 1515 1516 1516 1516 1516 1516 1516 1516 1516 1517 1517 1517 1517 1517 1517 1517 1517 1516 1516 1516 1517 1517 1516 1516 1516 1516 1516 1516 1516
1526 1525 1523 1521 1519 1518 1516 1513 1507 1506 1510 1514 1516 1517 1517 1517 1517 1517 1518 1518 1518 1518 1518 1518 1518 1518 1518 1518 1518 1518 1518 1518 1518 1518 1518 1517 1515 1516 1516 1517 1517 1517 1517
1528 1527 1525 1524 1522 1521 1519 1517 1513 1511 1514 1517 1518 1519 1519 1519 1519 1519 1519 1519 1520 1520 1520 1520 1520 1520 1520 1520 1520 1520 1520 1519 1519 1519 1519 1517 1516 1516 1517 1518 1517 1517 1517
1530 1529 1527 1526 1525 1524 1523 1521 1520 1519 1519 1520 1521 1521 1521 1521 1521 1521 1521 1521 1521 1521 1521 1522 1521 1521 1521 1521 1521 1521 1521 1521 1521 1521 1520 1519 1518 1518 1519 1519 1518 1518 1518
1531 1531 1530 1528 1527 1527 1526 1525 1524 1524 1523 1523 1524 1524 1523 1523 1523 1523 1523 1523 1523 1523 1523 1523 1523 1523 1523 1523 1522 1522 1522 1522 1523 1523 1522 1521 1520 1520 1520 1520 1519 1519 1519
1533 1532 1532 1531 1530 1529 1529 1528 1527 1527 1527 1526 1526 1526 1526 1525 1525 1525 1525 1525 1525 1525 1524 1524 1524 1524 1524 1524 1524 1524 1523 1523 1524 1524 1524 1523 1522 1521 1521 1521 1520 1520 1519
1535 1534 1534 1533 1533 1532 1531 1530 1530 1530 1529 1529 1529 1528 1528 1528 1528 1527 1527 1527 1527 1526 1526 1526 1525 1525 1525 1525 1525 1525 1525 1525 1526 1525 1525 1524 1523 1523 1522 1522 1521 1521 1520
1536 1536 1536 1535 1535 1534 1534 1533 1532 1532 1532 1531 1531 1531 1531 1531 1531 1530 1529 1529 1528 1528 1527 1527 1527 1527 1527 1527 1527 1527 1527 1528 1527 1527 1526 1525 1525 1524 1523 1523 1522 1522 1521
1538 1538 1537 1537 1536 1536 1535 1535 1535 1535 1534 1534 1534 1533 1533 1533 1532 1532 1531 1530 1530 1529 1529 1529 1529 1529 1529 1529 1529 1529 1529 1529 1529 1528 1527 1527 1526 1525 1524 1524 1523 1522 1521
1539 1539 1539 1538 1538 1538 1537 1537 1537 1536 1536 1536 1536 1535 1535 1535 1534 1534 1533 1532 1532 1531 1531 1531 1531 1531 1531 1531 1531 1531 1530 1531 1530 1530 1529 1528 1527 1526 1526 1525 1524 1523 1522
1540 1540 1540 1540 1540 1539 1539 1538 1538 1538 1538 1538 1537 1537 1537 1536 1536 1536 1535 1534 1534 1533 1533 1533 1533 1533 1533 1533 1533 1532 1532 1532 1531 1531 1530 1529 1529 1528 1527 1526 1525 1524 1523
1541 1541 1541 1541 1541 1541 1540 1540 1540 1540 1540 1540 1539 1539 1539 1538 1538 1538 1537 1536 1536 1535 1535 1534 1535 1534 1534 1534 1534 1534 1533 1533 1533 1532 1531 1530 1529 1528 1528 1527 1526 1524 1523
1542 1542 1542 1542 1542 1542 1542 1542 1542 1541 1541 1541 1541 1541 1541 1540 1540 1539 1539 1538 1537 1537 1537 1537 1536 1536 1536 1535 1535 1535 1534 1534 1534 1533 1532 1531 1530 1529 1528 1527 1526 1525 1523
1542 1542 1542 1542 1543 1543 1543 1543 1542 1542 1542 1542 1542 1542 1542 1541 1541 1541 1540 1540 1539 1539 1538 1538 1538 1537 1537 1537 1536 1536 1535 1535 1535 1534 1533 1533 1531 1530 1529 1527 1526 1525 1524
1543 1543 1543 1543 1543 1543 1544 1544 1543 1543 1543 1543 1543 1543 1543 1543 1542 1542 1541 1541 1540 1540 1540 1539 1539 1538 1538 1538 1537 1537 1536 1536 1535 1535 1534 1533 1532 1531 1530 1528 1527 1526 1524
1543 1543 1543 1543 1544 1544 1544 1544 1544 1544 1544 1544 1544 1544 1544 1544 1543 1543 1542 1542 1542 1541 1541 1540 1540 1540 1539 1538 1538 1537 1537 1537 1536 1535 1535 1534 1533 1531 1530 1529 1527 1526 1525
1543 1544 1544 1544 1544 1544 1545 1545 1545 1545 1545 1545 1545 1545 1545 1544 1544 1544 1543 1543 1542 1542 1542 1541 1540 1540 1539 1539 1538 1538 1537 1537 1536 1535 1535 1534 1533 1532 1531 1529 1528 1527 1525
1543 1544 1544 1544 1545 1545 1545 1546 1546 1546 1546 1546 1545 1545 1545 1545 1545 1544 1544 1544 1543 1543 1542 1542 1541 1541 1540 1539 1539 1538 1538 1537 1537 1535 1535 1534 1533 1532 1530 1529 1528 1527 1526
1542 1543 1544 1544 1545 1545 1545 1546 1546 1546 1546 1546 1546 1545 1545 1545 1545 1545 1545 1544 1544 1543 1542 1542 1541 1541 1541 1540 1540 1539 1539 1539 1537 1536 1535 1534 1533 1532 1531 1530 1528 1527 1526
1541 1542 1543 1544 1544 1545 1545 1546 1546 1546 1546 1546 1546 1545 1545 1545 1545 1545 1545 1545 1544 1544 1543 1542 1542 1541 1541 1541 1540 1541 1540 1538 1538 1537 1536 1534 1533 1532 1531 1530 1529 1528 1527
1539 1540 1542 1543 1544 1545 1545 1546 1546 1546 1547 1547 1546 1546 1546 1545 1545 1545 1544 1544 1544 1543 1543 1542 1542 1541 1541 1541 1540 1539 1540 1539 1539 1537 1537 1535 1533 1532 1531 1530 1529 1528 1527
1537 1538 1540 1542 1543 1544 1545 1545 1546 1546 1546 1546 1546 1546 1545 1545 1544 1544 1544 1543 1543 1543 1542 1541 1541 1540 1540 1540 1540 1539 1538 1538 1538 1537 1536 1536 1534 1532 1530 1529 1528 1528 1527
1535 1536 1538 1540 1541 1543 1543 1544 1545 1545 1545 1545 1545 1545 1545 1544 1544 1544 1543 1543 1542 1542 1541 1540 1540 1539 1539 1539 1538 1538 1538 1537 1537 1536 1535 1535 1534 1532 1531 1529 1528 1527 1526